[[{"header":{"parameterUnit":"m.s-1","parameterCategory":1,"la1":30.2991,"la2":30.254,"lo1":-89.0895,"lo2":-89.0444,"dy":0.0017,"dx":0.0017,"nx":28,"ny":28,"refTime":"2025-09-07T03:00:00:Z","depth":0,"parameterNumber":2,"parameterNumberName":"U-component_of_WINDS"},"data":[0,0,0,0,0,0,0,0,0,0,0,0,0,0,0,0,0,0,0,0,0,0,0,0,0,0,0,0,0,0,0,0,0,0,0,0,0,0,0,0,0,0,0,0,0,0,0,0,0,0,0,0,0,0,0,0,0,0,-2.2519,-2.2519,0,-2.2571,-2.2572,-2.2572,-2.2494,-2.2492,-2.2489,-2.2486,-2.2541,-2.2544,-2.2548,0,0,0,0,0,0,0,0,0,0,0,0,0,-2.2351,-2.2355,-2.2519,-2.252,-2.252,-2.2571,-2.2572,-2.2572,-2.2495,-2.2492,-2.2488,-2.2485,-2.2539,-2.2544,-2.2549,0,0,0,0,0,0,0,0,0,0,0,0,0,-2.2416,-2.2356,-2.2519,-2.2488,-2.2485,-2.2571,-2.2572,-2.2573,-2.2496,-2.2491,-2.2487,-2.2484,-2.2538,-2.2543,-2.2549,-2.2668,0,0,-2.2568,-2.257,0,0,0,0,0,0,0,0,-2.2412,-2.2422,-2.2491,-2.249,-2.2487,-2.2522,-2.2532,-2.2605,-2.2497,-2.2492,-2.2486,-2.2482,-2.2538,-2.2543,-2.2562,-2.2671,-2.2673,-2.2568,-2.2572,-2.2574,-2.2576,0,0,0,0,0,0,0,-2.2408,-2.242,-2.2539,-2.2493,-2.249,-2.2471,-2.2475,-2.2546,-2.2537,-2.2492,-2.2486,-2.2493,-2.2536,-2.2557,-2.2563,-2.2674,-2.2568,-2.2573,-2.2577,-2.2579,-2.2882,-2.2886,0,0,0,0,0,0,-2.2407,-2.2416,-2.2538,-2.2541,-2.2439,-2.2477,-2.2482,-2.2515,-2.2536,-2.2535,-2.2497,-2.249,-2.2548,-2.2556,-2.2565,-2.2706,-2.2574,-2.258,-2.2583,-2.2878,-2.2883,-2.2888,0,0,0,0,0,0,-2.2404,-2.2419,-2.2536,-2.2477,-2.2491,-2.2484,-2.2522,-2.2518,-2.2539,-2.254,-2.2538,-2.252,-2.2546,-2.2556,-2.2643,-2.2706,-2.2583,-2.2588,-2.2872,-2.2879,-2.2885,-2.2989,0,0,0,0,0,0,-2.24,-2.2418,-2.2464,-2.2479,-2.2494,-2.2614,-2.2526,-2.2522,-2.255,-2.2541,-2.2561,-2.256,-2.2543,-2.2634,-2.2649,-2.2712,-2.2593,-2.2867,-2.2875,-2.2883,-2.298,-2.2998,-2.3014,0,0,0,0,0,-2.2394,-2.2491,-2.2466,-2.2482,-2.2551,-2.2618,-2.2626,-2.2604,-2.2555,-2.2601,-2.2601,-2.256,-2.2696,-2.2644,-2.266,-2.2726,-2.2863,-2.2873,-2.2883,-2.2972,-2.2995,-2.3014,0,0,0,0,0,0,-2.2484,-2.2492,-2.2465,-2.257,-2.2594,-2.2604,-2.2661,-2.2629,-2.2667,-2.2657,-2.2628,-2.2633,-2.2727,-2.2734,-2.2676,-2.2842,-2.2771,-2.2785,-2.2834,-2.2855,-2.2872,-2.2869,-2.2598,0,0,0,0,0,-2.2516,-2.2569,-2.2574,-2.2666,-2.2679,-2.2668,-2.2697,-2.2677,-2.2701,-2.2711,-2.2717,-2.2742,-2.279,-2.2822,-2.2867,-2.2979,-2.2983,-2.3032,-2.305,-2.3064,-2.3077,-2.3137,-2.3159,-2.2921,-2.2921,-2.292,0,0,-2.2583,-2.2594,-2.263,-2.2684,-2.27,-2.2757,-2.2677,-2.274,-2.2782,-2.272,-2.2803,-2.2808,-2.2833,-2.2934,-2.2978,-2.2943,-2.3143,-2.3076,-2.3088,-2.3093,-2.315,-2.3172,-2.3192,-2.2928,-2.2926,-2.2925,0,0,-2.2734,-2.2747,-2.2825,-2.2843,-2.2868,-2.286,-2.2879,-2.2894,-2.2895,-2.2978,-2.2932,-2.2981,-2.3065,-2.3085,-2.3106,-2.3262,-2.3227,-2.3277,-2.3368,-2.3427,-2.3446,-2.3463,-2.352,-2.3541,-2.329,-2.329,-2.329,0,-2.2814,-2.2897,-2.287,-2.2936,-2.2962,-2.2907,-2.2986,-2.3004,-2.3043,-2.3062,-2.3021,-2.3125,-2.3138,-2.3243,-2.3281,-2.3299,-2.332,-2.3276,-2.3445,-2.3462,-2.3477,-2.3531,-2.3553,-2.3296,-2.3295,-2.3295,-2.3294,0,-2.2995,-2.3053,-2.3113,-2.3152,-2.3184,-2.3256,-2.324,-2.3275,-2.3252,-2.3248,-2.3333,-2.3346,-2.3392,-2.3415,-2.3394,-2.3517,-2.3494,-2.345,-2.3379,-2.3506,-2.3557,-2.3577,-2.3305,-2.3303,-2.3301,-2.3299,0,0,-2.3207,-2.3228,-2.3251,-2.3268,-2.329,-2.3335,-2.3404,-2.3449,-2.3481,-2.3508,-2.3566,-2.3638,-2.3597,-2.3621,-2.3601,-2.3652,-2.3777,-2.3602,-2.3602,-2.3635,-2.3914,-2.3949,-2.3973,-2.3752,-2.3756,-2.3759,-2.3912,0,-2.3359,-2.348,-2.3456,-2.3574,-2.3628,-2.3576,-2.3636,-2.3657,-2.3654,-2.3699,-2.3696,-2.3748,-2.3689,-2.3703,-2.3752,-2.3752,-2.3833,-2.374,-2.3807,-2.3809,-2.3805,-2.3999,-2.4037,-2.4181,-2.3932,-2.3935,-2.3938,0,-2.3553,-2.3588,-2.3711,-2.3725,-2.3747,-2.3802,-2.3841,-2.3884,-2.3906,-2.39,-2.3927,-2.3896,-2.3965,-2.3891,-2.3986,-2.3923,-2.3948,-2.3952,-2.3957,-2.3965,-2.3883,-2.4014,-2.4227,-2.4249,-2.3968,-2.3966,-2.3963,0,-2.3698,-2.3775,-2.3859,-2.3874,-2.3892,-2.3932,-2.3941,-2.3959,-2.3987,-2.4021,-2.4039,-2.408,-2.4103,-2.4136,-2.4117,-2.4065,-2.4216,-2.414,-2.4214,-2.4215,-2.425,-2.4249,-2.4472,-2.4263,-2.4263,-2.4262,-2.4262,0,-2.3871,-2.3949,-2.3924,-2.3976,-2.4062,-2.4033,-2.4118,-2.4121,-2.4137,-2.4188,-2.4144,-2.4194,-2.4165,-2.4212,-2.4197,-2.4279,-2.4289,-2.4287,-2.4283,-2.4292,-2.4293,-2.431,-2.4301,-2.4268,-2.4267,-2.4266,-2.4265,0,-2.4049,-2.4035,-2.4123,-2.4132,-2.4136,-2.4199,-2.4206,-2.4254,-2.4247,-2.4313,-2.4327,-2.4317,-2.4369,-2.4353,-2.441,-2.44,-2.4504,-2.4485,-2.4497,-2.4493,-2.4569,-2.4563,-2.4813,-2.4845,-2.4614,-2.4616,-2.4618,0,-2.4162,-2.422,-2.4235,-2.4267,-2.4279,-2.433,-2.4358,-2.4331,-2.4363,-2.4391,-2.4436,-2.4485,-2.4523,-2.4609,-2.4607,-2.465,-2.4633,-2.4718,-2.464,-2.4648,-2.4637,-2.4635,-2.4641,-2.4735,-2.4738,-2.474,-2.4741,0,-2.4364,-2.4354,-2.4397,-2.4438,-2.4473,-2.4503,-2.453,-2.4557,-2.4532,-2.457,-2.4623,-2.4652,-2.471,-2.4759,-2.4797,-2.4806,-2.4771,-2.4765,-2.4785,-2.4797,-2.4802,-2.4802,-2.4542,-2.4761,-2.4759,-2.4757,-2.4756,-2.4756,-2.4514,-2.4564,-2.4582,-2.4631,-2.4648,-2.4674,-2.472,-2.4718,-2.4762,-2.4807,-2.4788,-2.4849,-2.4868,-2.4916,-2.493,-2.4978,-2.4945,-2.4974,-2.4981,-2.4989,-2.5,-2.4792,-2.4985,-2.4984,-2.4983,-2.4983,-2.4982,0,-2.4716,-2.4725,-2.477,-2.4808,-2.4847,-2.4808,-2.4835,-2.487,-2.4924,-2.4945,-2.4982,-2.5043,-2.509,-2.5091,-2.5135,-2.5173,-2.5157,-2.5185,-2.5183,-2.5186,-2.5025,-2.5005,-2.5197,-2.5197,-2.5197,-2.5197,-2.5197,-2.5197,-2.4826,-2.4909,-2.49,-2.4991,-2.4998,-2.5058,-2.5077,-2.51,-2.5116,-2.5187,-2.5225,-2.5225,-2.5237,-2.5281,-2.5323,-2.5321,-2.534,-2.5375,-2.5368,-2.5219,-2.5197,-2.5177,-2.5158,-2.5379,-2.5379,-2.5525,-2.5526,-2.5527]},{"header":{"parameterUnit":"m.s-1","parameterCategory":1,"la1":30.2991,"la2":30.254,"lo1":-89.0895,"lo2":-89.0444,"dy":0.0017,"dx":0.0017,"nx":28,"ny":28,"refTime":"2025-09-07T03:00:00:Z","depth":0,"parameterNumber":3,"parameterNumberName":"V-component_of_WINDS"},"data":[0,0,0,0,0,0,0,0,0,0,0,0,0,0,0,0,0,0,0,0,0,0,0,0,0,0,0,0,0,0,0,0,0,0,0,0,0,0,0,0,0,0,0,0,0,0,0,0,0,0,0,0,0,0,0,0,0,0,-6.2771,-6.2771,0,-6.2839,-6.2839,-6.284,-6.2737,-6.2733,-6.273,-6.2726,-6.2791,-6.2796,-6.2801,0,0,0,0,0,0,0,0,0,0,0,0,0,-6.2545,-6.255,-6.277,-6.2771,-6.2772,-6.2838,-6.2839,-6.284,-6.2737,-6.2733,-6.2729,-6.2725,-6.2789,-6.2795,-6.2801,0,0,0,0,0,0,0,0,0,0,0,0,0,-6.2631,-6.2552,-6.277,-6.2729,-6.2726,-6.2838,-6.2839,-6.284,-6.2738,-6.2733,-6.2728,-6.2723,-6.2787,-6.2795,-6.2802,-6.2956,0,0,-6.2825,-6.2829,0,0,0,0,0,0,0,0,-6.2626,-6.264,-6.2734,-6.2732,-6.2729,-6.2774,-6.2783,-6.2879,-6.274,-6.2734,-6.2726,-6.272,-6.2789,-6.2796,-6.2821,-6.2959,-6.2962,-6.2826,-6.2831,-6.2834,-6.2836,0,0,0,0,0,0,0,-6.2621,-6.2636,-6.2797,-6.2736,-6.2733,-6.2705,-6.2711,-6.2801,-6.279,-6.2734,-6.2726,-6.2736,-6.2787,-6.2814,-6.2821,-6.2963,-6.2826,-6.2833,-6.2837,-6.284,-6.323,-6.3235,0,0,0,0,0,0,-6.2621,-6.2632,-6.2795,-6.2799,-6.2664,-6.2713,-6.272,-6.2765,-6.2789,-6.2788,-6.2741,-6.2731,-6.2803,-6.2813,-6.2823,-6.3005,-6.2834,-6.2841,-6.2845,-6.3224,-6.3231,-6.3237,0,0,0,0,0,0,-6.2616,-6.2636,-6.2792,-6.2714,-6.2731,-6.2723,-6.2774,-6.2769,-6.2796,-6.2795,-6.2792,-6.2771,-6.28,-6.2813,-6.2924,-6.3005,-6.2844,-6.2851,-6.3217,-6.3226,-6.3234,-6.3369,0,0,0,0,0,0,-6.261,-6.2635,-6.2695,-6.2716,-6.2736,-6.2894,-6.2779,-6.2774,-6.281,-6.2798,-6.2822,-6.2821,-6.2796,-6.2913,-6.2932,-6.3013,-6.2857,-6.321,-6.3221,-6.3231,-6.3358,-6.3382,-6.3402,0,0,0,0,0,-6.2602,-6.273,-6.2699,-6.2719,-6.2811,-6.2899,-6.291,-6.2881,-6.2817,-6.2876,-6.2875,-6.282,-6.2994,-6.2926,-6.2945,-6.303,-6.3205,-6.3218,-6.3231,-6.3348,-6.3377,-6.3402,0,0,0,0,0,0,-6.2718,-6.2732,-6.2698,-6.2836,-6.2867,-6.2882,-6.2956,-6.2913,-6.2962,-6.2949,-6.2909,-6.2915,-6.3035,-6.3043,-6.2967,-6.318,-6.3088,-6.3106,-6.317,-6.3198,-6.322,-6.3215,-6.2864,0,0,0,0,0,-6.2759,-6.2832,-6.2839,-6.296,-6.2978,-6.2965,-6.3001,-6.2976,-6.3006,-6.3019,-6.3026,-6.3056,-6.3116,-6.3158,-6.3214,-6.3358,-6.3361,-6.3426,-6.3448,-6.3467,-6.3482,-6.3558,-6.3586,-6.328,-6.328,-6.328,0,0,-6.2846,-6.2862,-6.291,-6.2984,-6.3005,-6.3079,-6.2976,-6.3058,-6.3112,-6.303,-6.3137,-6.3143,-6.3173,-6.3302,-6.3358,-6.3312,-6.3567,-6.3483,-6.3498,-6.3504,-6.3574,-6.3603,-6.3629,-6.3289,-6.3287,-6.3286,0,0,-6.3041,-6.3062,-6.3164,-6.3188,-6.3222,-6.3212,-6.3237,-6.3258,-6.3259,-6.3365,-6.3305,-6.3367,-6.3473,-6.3497,-6.3523,-6.3727,-6.3677,-6.3746,-6.3862,-6.3936,-6.396,-6.3982,-6.4053,-6.4079,-6.3761,-6.3762,-6.3762,0,-6.3144,-6.3254,-6.3222,-6.3309,-6.3342,-6.3273,-6.3376,-6.3399,-6.345,-6.3473,-6.3421,-6.3553,-6.3568,-6.3701,-6.375,-6.3774,-6.3799,-6.3743,-6.396,-6.3981,-6.4,-6.4068,-6.4095,-6.377,-6.3769,-6.3768,-6.3767,0,-6.3378,-6.3456,-6.3534,-6.3586,-6.3628,-6.3722,-6.3702,-6.3748,-6.3719,-6.3714,-6.3821,-6.3838,-6.3896,-6.3925,-6.3897,-6.4053,-6.4023,-6.3967,-6.3873,-6.4038,-6.4101,-6.4127,-6.3781,-6.3778,-6.3776,-6.3774,0,0,-6.3649,-6.3682,-6.3711,-6.3733,-6.3765,-6.3823,-6.3913,-6.3971,-6.4011,-6.4047,-6.412,-6.4211,-6.4159,-6.4188,-6.4162,-6.4227,-6.4386,-6.4162,-6.4162,-6.4202,-6.4558,-6.46,-6.4631,-6.4353,-6.4358,-6.4362,-6.4555,0,-6.3843,-6.4001,-6.3974,-6.4126,-6.4196,-6.4131,-6.4209,-6.4236,-6.4233,-6.429,-6.4286,-6.4351,-6.4277,-6.4294,-6.4356,-6.4354,-6.4456,-6.4339,-6.4419,-6.4423,-6.4414,-6.4664,-6.471,-6.4891,-6.4579,-6.4583,-6.4586,0,-6.4091,-6.4138,-6.4298,-6.4318,-6.4347,-6.4418,-6.4468,-6.4524,-6.4552,-6.4545,-6.4579,-6.454,-6.4627,-6.4533,-6.4651,-6.4572,-6.4603,-6.4607,-6.4613,-6.4619,-6.4515,-6.4676,-6.4948,-6.4976,-6.4625,-6.4622,-6.4619,0,-6.4272,-6.4375,-6.4484,-6.4505,-6.4531,-6.4582,-6.4595,-6.4618,-6.4654,-6.4697,-6.472,-6.4772,-6.4801,-6.4841,-6.4817,-6.4751,-6.4939,-6.4843,-6.4935,-6.4936,-6.4978,-6.4975,-6.5258,-6.4998,-6.4998,-6.4997,-6.4997,0,-6.4492,-6.4592,-6.4565,-6.4632,-6.4741,-6.4708,-6.4817,-6.4821,-6.4842,-6.4907,-6.4853,-6.4915,-6.4879,-6.4937,-6.4918,-6.5019,-6.5032,-6.5027,-6.5021,-6.5033,-6.5033,-6.5052,-6.5039,-6.5005,-6.5003,-6.5002,-6.5,0,-6.4712,-6.4699,-6.4813,-6.4828,-6.4834,-6.4914,-6.4926,-6.4988,-6.498,-6.5063,-6.508,-6.5069,-6.5135,-6.5114,-6.5184,-6.5171,-6.5299,-6.5277,-6.529,-6.5285,-6.5377,-6.5369,-6.5682,-6.572,-6.5436,-6.5439,-6.5441,0,-6.4853,-6.4929,-6.4953,-6.4993,-6.5011,-6.5077,-6.5114,-6.5083,-6.5123,-6.516,-6.5217,-6.5278,-6.5325,-6.5433,-6.5429,-6.5483,-6.5461,-6.5567,-6.5468,-6.5477,-6.5461,-6.5457,-6.5464,-6.5586,-6.559,-6.5592,-6.5594,0,-6.5105,-6.5094,-6.5151,-6.5205,-6.5251,-6.5291,-6.5327,-6.5362,-6.5334,-6.5381,-6.5449,-6.5486,-6.5558,-6.5619,-6.5666,-6.5677,-6.5631,-6.5626,-6.5649,-6.5661,-6.5666,-6.5664,-6.5344,-6.5618,-6.5616,-6.5614,-6.5613,-6.5612,-6.5289,-6.5353,-6.538,-6.5444,-6.5468,-6.5502,-6.556,-6.5561,-6.5617,-6.5675,-6.5652,-6.5729,-6.5753,-6.5813,-6.5831,-6.5889,-6.5848,-6.5883,-6.5891,-6.59,-6.5912,-6.5657,-6.5897,-6.5897,-6.5896,-6.5895,-6.5895,0,-6.5538,-6.5552,-6.5611,-6.5663,-6.5713,-6.5667,-6.5703,-6.5747,-6.5817,-6.5844,-6.5892,-6.5968,-6.6027,-6.6028,-6.6082,-6.6128,-6.6108,-6.6143,-6.614,-6.6143,-6.5946,-6.592,-6.6159,-6.6159,-6.6159,-6.6159,-6.6158,-6.6158,-6.5673,-6.5778,-6.5771,-6.5887,-6.5899,-6.5976,-6.6,-6.603,-6.6052,-6.6141,-6.619,-6.619,-6.6207,-6.6261,-6.6312,-6.631,-6.6333,-6.6376,-6.6366,-6.6183,-6.6157,-6.6132,-6.6107,-6.6381,-6.6381,-6.6558,-6.656,-6.6561]}]]